2021-022AP

Last updated on Thu Apr 22 2021 00:02:05 GMT+0000 (Coordinated Universal Time)

1 48085U 21022AP 21110.70236354 .00001116 00000-0 81401-4 0 9994 2 48085 97.5584 13.9962 0021799 145.5525 273.9443 15.05562347 3430

Satellite not in orbit

2021-022AP